Glendale Luke AFB, AZ

9:47 PM MST on June 27, 2017 (GMT -0700)
Luke Air Force Base

Weather History for KLUF - October, 2011

Change the Weather History Date:

Monday, October 3, 2011

  Actual Average Record
Temperature  
Mean Temperature 86 °F -  
Max Temperature 96 °F 95 °F 108 °F (1980)
Min Temperature 75 °F 61 °F 47 °F (1927)
Cooling Degree Days 20    
Growing Degree Days 36 (Base 50)    
Moisture  
Dew Point 49 °F    
Average Humidity 28    
Maximum Humidity 41    
Minimum Humidity 19    
Precipitation  
Precipitation 0.00 in - - ()
Sea Level Pressure  
Sea Level Pressure 29.81 in    
Wind  
Wind Speed 6 mph (SW)    
Max Wind Speed 13 mph    
Max Gust Speed -    
Visibility 10 miles    
Events      
Averages and records for this station are not official NWS values.
T = Trace of Precipitation, MM = Missing Value Source: NWS Daily Summary

Daily Weather History Graph

Daily Weather History Graph

Search for Another Location

Airport or City:

Trip Planner

Search our weather history database for the weather conditions in past years. The results will help you decide how hot, cold, wet, or windy it might be!

Date:

Astronomy

Oct. 03, 2011 Rise Set
Actual Time 6:25 AM MST 6:11 PM MST
Civil Twilight 6:00 AM MST 6:36 PM MST
Nautical Twilight 5:31 AM MST 7:05 PM MST
Astronomical Twilight 5:02 AM MST 7:33 PM MST
Moon 1:10 PM MST (10/3) 11:33 PM MST (10/3)
Length of Visible Light 12h 35m
Length of Day
11h 46m
Waxing Crescent, 46% of the Moon is Illuminated
Oct 3
Waxing Crescent
Oct 3
First Quarter
Oct 11
Full
Oct 19
Last Quarter
Oct 26
New

Hourly Weather History & Observations

Time (MST) Temp. Heat Index Dew Point Humidity Pressure Visibility Wind Dir Wind Speed Gust Speed Precip Events Conditions
12:55 AM 76.3 °F - 47.1 °F 36% 29.90 in 10.0 mi NNW 5.8 mph - N/A   Mostly Cloudy
1:55 AM 77.2 °F - 47.8 °F 35% 29.90 in 10.0 mi North 4.6 mph - N/A   Scattered Clouds
2:55 AM 77.0 °F - 48.9 °F 37% 29.89 in 10.0 mi North 5.8 mph - N/A   Overcast
3:55 AM 79.0 °F - 49.3 °F 35% 29.82 in 10.0 mi NNE 4.6 mph - N/A   Overcast
4:55 AM 79.0 °F - 51.8 °F 39% 29.82 in 10.0 mi Calm Calm - N/A   Overcast
5:55 AM 78.1 °F - 50.2 °F 38% 29.83 in 10.0 mi North 4.6 mph - N/A   Mostly Cloudy
6:26 AM 75.2 °F - 50.0 °F 41% 30.03 in 10.0 mi NNW 5.8 mph - N/A   Clear
6:55 AM 75.2 °F - 48.9 °F 39% 29.85 in 10.0 mi NW 8.1 mph - N/A   Clear
7:55 AM 82.4 °F - 49.6 °F 32% 29.87 in 10.0 mi NNW 3.5 mph - N/A   Partly Cloudy
8:55 AM 84.9 °F - 52.2 °F 32% 29.88 in 10.0 mi NE 4.6 mph - N/A   Clear
9:55 AM 89.1 °F - 52.5 °F 29% 29.88 in 10.0 mi East 8.1 mph - N/A   Clear
10:32 AM 91.4 °F - 51.8 °F 26% 29.86 in 10.0 mi SE 12.7 mph - N/A   Light Drizzle
10:44 AM 91.4 °F 89.1 °F 53.6 °F 28% 29.86 in 9.0 mi SE 8.1 mph - N/A   Clear
10:55 AM 90.9 °F 88.5 °F 53.1 °F 28% 29.86 in 10.0 mi SE 6.9 mph - N/A   Clear
11:55 AM 92.3 °F - 52.5 °F 26% 29.84 in 10.0 mi East 9.2 mph - N/A   Partly Cloudy
12:55 PM 93.9 °F - 52.9 °F 25% 29.81 in 10.0 mi SE 11.5 mph - N/A   Clear
1:55 PM 95.7 °F 93.4 °F 53.1 °F 24% 29.76 in 10.0 mi Variable 3.5 mph - N/A   Clear
2:55 PM 96.4 °F - 51.3 °F 22% 29.74 in 10.0 mi Variable 5.8 mph - N/A   Clear
3:55 PM 96.6 °F - 50.0 °F 21% 29.71 in 10.0 mi Variable 4.6 mph - N/A   Clear
4:55 PM 96.1 °F - 49.5 °F 20% 29.70 in 10.0 mi WSW 5.8 mph - N/A   Partly Cloudy
5:55 PM 94.8 °F - 48.6 °F 21% 29.71 in 10.0 mi SW 4.6 mph - N/A   Scattered Clouds
6:55 PM 91.2 °F - 43.2 °F 19% 29.72 in 10.0 mi WSW 10.4 mph - N/A   Clear
7:55 PM 86.9 °F - 43.2 °F 22% 29.74 in 10.0 mi WSW 5.8 mph - N/A   Clear
8:28 PM 87.8 °F - 42.8 °F 21% 29.74 in 10.0 mi SSW 6.9 mph - N/A   Light Drizzle
8:30 PM 87.8 °F - 42.8 °F 21% 29.79 in 10.0 mi SSW 9.2 mph - N/A   Clear
8:55 PM 86.0 °F - 42.3 °F 21% 29.74 in 10.0 mi SSW 5.8 mph - 0.00 in   Clear
9:55 PM 84.9 °F - 42.6 °F 23% 29.75 in 10.0 mi SW 11.5 mph - N/A   Clear
10:55 PM 81.5 °F - 43.7 °F 26% 29.75 in 10.0 mi SW 6.9 mph - N/A   Clear
11:55 PM 80.1 °F - 43.7 °F 28% 29.75 in 10.0 mi SE 4.6 mph - N/A   Mostly Cloudy